Home > Weather > Kokkola > Past weeks

Flag for Finland Weather for the Past 2 Weeks in Kokkola, Finland

Now
45 °F

Sunny.


Feels Like: 41 °F
Forecast: 34 / 52 °F
Wind: 6 mph from South

Location: Kruunupyy

Current Time: May 3, 2016 at 8:22:46 AM

Latest Report: May 3, 2016 at 7:50 AM


Visibility: 10 mi

Pressure: 30.04 "Hg

Humidity: 66%

Dew Point: 34 °F

Location of KokkolaLocation

Historic Weather in Kokkola — Graph

°F

Kokkola Temperature Yesterday

Maximum temperature yesterday: 55 °F (at 11:20 AM)
Minimum temperature yesterday: 27 °F (at 4:50 AM)
Average temperature yesterday: 44 °F

High & Low Weather Summary for the Past Weeks

 TemperatureHumidityPressure
High59 °F (May 1, 11:50 AM)100% (Apr 18, 6:20 AM)30.42 "Hg (Apr 18, 6:20 AM)
Low21 °F (Apr 23, 5:20 AM)31% (Apr 24, 1:20 PM)29.39 "Hg (Apr 18, 6:20 AM)
Average39 °F78%29.89 "Hg
* Reported Apr 18 6:20 AM — May 3 6:50 AM, Kokkola, Weather by CustomWeather, © 2016

Note: Actual official high and low records may vary slightly from our data, if they occured in-between our weather recording intervals... More about our weather records

Advertising

Kokkola Weather History for the Previous 24 Hours

Scroll right to see more
 ConditionsComfort  
Time TempWeatherWind HumidityBarometerVisibility
6:50 AM
Tue, May 3
43 °FSunny.5 mph71%30.04 "Hg10 mi
6:20 AM43 °FSunny.5 mph66%30.04 "Hg10 mi
5:50 AM41 °FClear.6 mph70%30.04 "Hg10 mi
5:20 AM41 °FClear.5 mph66%30.04 "Hg10 mi
4:50 AM41 °FClear.3 mph66%30.04 "Hg10 mi
4:20 AM41 °FClear.6 mph61%30.04 "Hg10 mi
3:50 AM39 °FClear.8 mph65%30.07 "Hg10 mi
3:20 AM37 °FClear.7 mph70%30.07 "Hg10 mi
2:50 AM36 °FClear.5 mph75%30.07 "Hg10 mi
2:20 AM32 °FClear.3 mph87%30.07 "Hg10 mi
1:50 AM34 °FClear.2 mph81%30.07 "Hg10 mi
1:20 AM32 °FClear.2 mph93%30.07 "Hg10 mi
12:50 AM34 °FClear.1 mph93%30.09 "Hg10 mi
12:20 AM34 °FClear.1 mph93%30.09 "Hg10 mi
11:50 PM
Mon, May 2
36 °FClear.1 mph87%30.09 "Hg10 mi
11:20 PM36 °FClear.2 mph87%30.09 "Hg10 mi
10:50 PM37 °FSunny.1 mph81%30.09 "Hg10 mi
10:20 PM41 °FSunny.2 mph76%30.09 "Hg10 mi
9:50 PM43 °FSunny.No wind71%30.09 "Hg10 mi
9:20 PM48 °FSunny.No wind58%30.09 "Hg10 mi
8:50 PM50 °FSunny.3 mph58%30.09 "Hg10 mi
8:20 PM52 °FPassing clouds.5 mph50%30.09 "HgN/A
7:50 PM52 °FPassing clouds.6 mph50%30.09 "HgN/A
7:20 PM52 °FSunny.8 mph47%30.12 "Hg10 mi
6:50 PM52 °FSunny.9 mph47%30.12 "Hg10 mi
6:20 PM54 °FPassing clouds.9 mph44%30.12 "HgN/A
5:50 PM54 °FPassing clouds.10 mph44%30.12 "HgN/A
5:20 PM54 °FPassing clouds.10 mph41%30.12 "HgN/A
4:50 PM54 °FPassing clouds.14 mph41%30.12 "HgN/A
4:20 PM54 °FPassing clouds.13 mph44%30.15 "HgN/A
3:50 PM54 °FPassing clouds.13 mph41%30.15 "HgN/A
3:20 PM54 °FPassing clouds.13 mph41%30.15 "HgN/A
2:50 PM55 °FPassing clouds.14 mph36%30.15 "HgN/A
2:20 PM55 °FPassing clouds.13 mph36%30.15 "HgN/A
1:50 PM54 °FPassing clouds.10 mph41%30.15 "HgN/A
1:20 PM55 °FPassing clouds.13 mph38%30.15 "HgN/A
12:50 PM54 °FPassing clouds.15 mph41%30.18 "HgN/A
12:20 PM55 °FPassing clouds.13 mph41%30.18 "HgN/A
11:50 AM52 °FPartly sunny.10 mph50%30.18 "HgN/A
11:20 AM55 °FScattered clouds.13 mph47%30.18 "HgN/A
10:50 AM54 °FPassing clouds.8 mph54%30.18 "HgN/A
10:20 AM50 °FPassing clouds.7 mph58%30.18 "HgN/A
9:50 AM48 °FSunny.8 mph62%30.18 "Hg10 mi
9:20 AM48 °FSunny.8 mph62%30.18 "Hg10 mi
Weather by CustomWeather, © 2016

See weather overviewHow to use our weather pages